DW3823 Weather Reports


time (UTC)temp
C
wind
direction
speed
KPH
gust
KPH
rain 1hr
cm
rain 24hr
cm
rain mn
cm
humidity
%
barometer
mb
20260505065550 14 238 0.0 4.8 0.00 0.00 0.00 69 1011.6
20260505065049 14 238 0.0 4.8 0.00 0.00 0.00 69 1011.5
20260505064557 15 170 0.0 0.0 0.00 0.00 0.00 69 1011.6
20260505064047 15 170 0.0 1.6 0.00 0.00 0.00 68 1011.6
20260505063546 15 170 0.0 1.6 0.00 0.00 0.00 67 1011.7
20260505063045 15 170 0.0 3.2 0.00 0.00 0.00 66 1011.7
20260505062544 15 170 0.0 3.2 0.00 0.00 0.00 66 1011.7
20260505062042 16 171 0.0 8.0 0.00 0.00 0.00 64 1011.7
20260505061542 16 167 1.6 8.0 0.00 0.00 0.00 64 1011.7
20260505061043 16 180 0.0 4.8 0.00 0.00 0.00 63 1011.7
20260505060541 16 180 0.0 4.8 0.00 0.00 0.00 63 1011.9
20260505060041 16 181 0.0 4.8 0.00 0.00 0.00 63 1011.9
20260505055539 16 181 0.0 4.8 0.00 0.00 0.00 62 1011.9
20260505055038 16 238 0.0 6.4 0.00 0.00 0.00 62 1012.0
20260505054537 16 167 1.6 9.7 0.00 0.00 0.00 62 1012.0
20260505054038 16 216 1.6 8.0 0.00 0.00 0.00 61 1011.9
20260505053537 17 264 3.2 9.7 0.00 0.00 0.00 61 1011.9
20260505053059 17 211 0.0 6.4 0.00 0.00 0.00 61 1011.9
20260505052535 17 215 0.0 11.3 0.00 0.00 0.00 61 1011.9
20260505052037 17 186 3.2 12.9 0.00 0.00 0.00 60 1011.9
20260505051535 17 180 1.6 8.0 0.00 0.00 0.00 61 1011.8
20260505051035 17 199 1.6 9.7 0.00 0.00 0.00 61 1011.7
20260505050532 17 210 3.2 11.3 0.00 0.00 0.00 60 1011.8
20260505041540 18 226 1.6 6.4 0.00 0.00 0.00 57 1011.4
20260505041030 17 176 3.2 8.0 0.00 0.00 0.00 58 1011.4
20260505040530 18 228 1.6 16.1 0.00 0.00 0.00 57 1011.5
20260505040030 18 232 4.8 16.1 0.00 0.00 0.00 57 1011.3
20260505035531 18 199 3.2 12.9 0.00 0.00 0.00 58 1011.4
20260505035030 18 175 4.8 12.9 0.00 0.00 0.00 57 1011.4
20260505034532 18 197 3.2 12.9 0.00 0.00 0.00 58 1011.3
20260505034031 18 189 1.6 12.9 0.00 0.00 0.00 58 1011.3
20260505033531 18 167 3.2 12.9 0.00 0.00 0.00 58 1011.4
20260505033029 18 162 1.6 8.0 0.00 0.00 0.00 58 1011.3
20260505032528 18 226 1.6 12.9 0.00 0.00 0.00 58 1011.5
20260505032029 18 142 3.2 12.9 0.00 0.00 0.00 58 1011.4
20260505031528 18 178 1.6 12.9 0.00 0.00 0.00 58 1011.5
20260505031032 18 174 3.2 9.7 0.00 0.00 0.00 58 1011.5
20260505030530 18 194 3.2 9.7 0.00 0.00 0.00 58 1011.4
20260505030028 18 260 1.6 16.1 0.00 0.00 0.00 59 1011.5
20260505025528 18 186 6.4 16.1 0.00 0.00 0.00 59 1011.4
20260505025027 18 189 1.6 9.7 0.00 0.00 0.00 59 1011.3
20260505024527 18 173 1.6 9.7 0.00 0.00 0.00 59 1011.3
20260505024030 18 178 3.2 11.3 0.00 0.00 0.00 59 1011.2
20260505023527 18 229 3.2 12.9 0.00 0.00 0.00 58 1011.5
20260505023027 18 161 4.8 12.9 0.00 0.00 0.00 58 1011.6
20260505022527 18 178 3.2 8.0 0.00 0.00 0.00 57 1011.4
20260505022026 19 189 1.6 11.3 0.00 0.00 0.00 56 1011.7
20260505021530 19 197 1.6 12.9 0.00 0.00 0.00 56 1011.5
20260505021026 19 213 4.8 12.9 0.00 0.00 0.00 56 1011.4
20260505020526 19 247 1.6 9.7 0.00 0.00 0.00 55 1011.4
20260505020026 19 189 1.6 9.7 0.00 0.00 0.00 55 1011.4
20260505015526 20 184 1.6 9.7 0.00 0.00 0.00 54 1011.4
20260505015026 20 174 1.6 9.7 0.00 0.00 0.00 54 1011.3
20260505014525 20 201 1.6 9.7 0.00 0.00 0.00 53 1011.4
20260505014024 20 261 4.8 9.7 0.00 0.00 0.00 53 1011.3
20260505013527 20 243 1.6 6.4 0.00 0.00 0.00 53 1011.2
20260505013024 20 190 1.6 8.0 0.00 0.00 0.00 53 1011.3
20260505012526 20 271 1.6 8.0 0.00 0.00 0.00 52 1011.2
20260505012026 20 207 4.8 8.0 0.00 0.00 0.00 52 1011.3
20260505011544 20 159 1.6 8.0 0.00 0.00 0.00 52 1011.2
20260505011024 20 250 3.2 6.4 0.00 0.00 0.00 51 1011.2
20260505010527 21 169 3.2 12.9 0.00 0.00 0.00 51 1011.0
20260505010023 21 182 4.8 12.9 0.00 0.00 0.00 51 1011.2
20260505005523 21 186 1.6 14.5 0.00 0.00 0.00 51 1011.2
20260505005023 21 261 4.8 14.5 0.00 0.00 0.00 50 1011.3
20260505004523 21 244 1.6 11.3 0.00 0.00 0.00 50 1011.2
20260505004023 21 281 3.2 11.3 0.00 0.00 0.00 50 1011.2
20260505003522 21 194 3.2 12.9 0.00 0.00 0.00 50 1011.0
20260505003022 21 191 1.6 12.9 0.00 0.00 0.00 50 1011.0
20260505002524 21 155 3.2 12.9 0.00 0.00 0.00 50 1011.0
20260505002022 21 136 3.2 8.0 0.00 0.00 0.00 50 1011.1
20260505001522 21 184 1.6 8.0 0.00 0.00 0.00 51 1011.0
20260505001021 22 193 1.6 11.3 0.00 0.00 0.00 50 1010.9
20260505000521 22 192 3.2 12.9 0.00 0.00 0.00 49 1010.9
20260505000028 22 191 1.6 9.7 0.00 0.00 0.00 49 1010.9
20260504235521 22 169 0.0 6.4 0.00 0.00 0.00 48 1010.9
20260504235022 22 173 3.2 11.3 0.00 0.00 0.00 48 1011.0
20260504234525 22 294 4.8 12.9 0.00 0.00 0.00 48 1011.0
20260504234020 22 249 4.8 12.9 0.00 0.00 0.00 47 1010.8
20260504233521 22 230 3.2 12.9 0.00 0.00 0.00 47 1011.1
20260504233018 23 179 3.2 14.5 0.00 0.00 0.00 47 1011.1
20260504232517 23 195 6.4 22.5 0.00 0.00 0.00 46 1011.2
20260504232017 23 241 8.0 22.5 0.00 0.00 0.00 45 1011.2
20260504231516 23 159 4.8 17.7 0.00 0.00 0.00 46 1011.2
20260504231016 23 194 8.0 17.7 0.00 0.00 0.00 46 1011.4
20260504230516 23 197 4.8 16.1 0.00 0.00 0.00 46 1011.4
20260504230016 23 290 4.8 9.7 0.00 0.00 0.00 46 1011.5
20260504225515 23 200 4.8 17.7 0.00 0.00 0.00 46 1011.4
20260504225015 23 123 6.4 17.7 0.00 0.00 0.00 46 1011.3
20260504224515 24 151 3.2 11.3 0.00 0.00 0.00 46 1011.1
20260504224014 24 152 1.6 20.9 0.00 0.00 0.00 47 1011.2
20260504223516 24 305 4.8 20.9 0.00 0.00 0.00 45 1011.3
20260504223018 24 194 6.4 22.5 0.00 0.00 0.00 45 1011.3
20260504222514 25 126 4.8 22.5 0.00 0.00 0.00 45 1011.2
20260504222013 25 144 3.2 19.3 0.00 0.00 0.00 44 1011.2
20260504221513 25 176 9.7 19.3 0.00 0.00 0.00 44 1011.3
20260504221017 25 134 3.2 19.3 0.00 0.00 0.00 45 1011.2
20260504220514 25 224 6.4 19.3 0.00 0.00 0.00 44 1011.2
20260504220013 25 215 4.8 16.1 0.00 0.00 0.00 43 1011.2
20260504215513 25 284 4.8 17.7 0.00 0.00 0.00 42 1011.1
20260504215012 25 238 8.0 17.7 0.00 0.00 0.00 44 1011.1
20260504214511 25 181 3.2 17.7 0.00 0.00 0.00 45 1011.0
20260504214110 25 317 6.4 16.1 0.00 0.00 0.00 43 1011.1
20260504213511 25 211 3.2 12.9 0.00 0.00 0.00 44 1011.0
20260504213009 25 184 6.4 19.3 0.00 0.00 0.00 44 1011.1
20260504212510 25 171 6.4 19.3 0.00 0.00 0.00 45 1011.1
20260504212009 25 157 4.8 19.3 0.00 0.00 0.00 44 1011.0
20260504211510 25 173 4.8 14.5 0.00 0.00 0.00 46 1011.2
20260504211008 25 144 4.8 20.9 0.00 0.00 0.00 45 1011.2
20260504210507 25 218 3.2 20.9 0.00 0.00 0.00 45 1011.4
20260504210012 25 238 4.8 12.9 0.00 0.00 0.00 44 1011.3
20260504205506 25 207 3.2 17.7 0.00 0.00 0.00 46 1011.4
20260504205005 25 221 6.4 14.5 0.00 0.00 0.00 43 1011.5
20260504204508 25 197 3.2 14.5 0.00 0.00 0.00 46 1011.5
20260504204004 25 151 8.0 27.4 0.00 0.00 0.00 48 1011.6
20260504203504 25 236 6.4 27.4 0.00 0.00 0.00 48 1011.7
20260504203003 25 196 3.2 16.1 0.00 0.00 0.00 47 1011.8
20260504202502 25 158 4.8 14.5 0.00 0.00 0.00 47 1011.8
20260504202000 25 239 6.4 14.5 0.00 0.00 0.00 45 1011.9
20260504201500 25 199 4.8 16.1 0.00 0.00 0.00 44 1012.1
20260504201059 25 232 4.8 16.1 0.00 0.00 0.00 47 1012.1
20260504200559 25 265 6.4 17.7 0.00 0.00 0.00 45 1012.2
20260504200103 25 242 4.8 17.7 0.00 0.00 0.00 49 1012.2
20260504195558 24 250 6.4 19.3 0.00 0.00 0.00 49 1012.5
20260504195058 25 167 4.8 14.5 0.00 0.00 0.00 45 1012.4
20260504194605 25 234 4.8 16.1 0.00 0.00 0.00 47 1012.5
20260504194059 25 161 1.6 20.9 0.00 0.00 0.00 47 1012.2
20260504193559 25 164 4.8 20.9 0.00 0.00 0.00 50 1012.5
20260504193100 25 332 4.8 22.5 0.00 0.00 0.00 47 1012.5
20260504192555 25 151 8.0 22.5 0.00 0.00 0.00 47 1012.6
20260504192055 25 150 3.2 11.3 0.00 0.00 0.00 49 1012.6
20260504191609 25 221 1.6 19.3 0.00 0.00 0.00 56 1012.8
20260504191052 25 267 6.4 19.3 0.00 0.00 0.00 48 1012.8
20260504190554 25 157 4.8 14.5 0.00 0.00 0.00 51 1012.8
20260504190051 25 237 4.8 16.1 0.00 0.00 0.00 52 1013.0
20260504185549 25 277 6.4 16.1 0.00 0.00 0.00 49 1012.9
20260504185052 24 222 4.8 11.3 0.00 0.00 0.00 52 1013.0
20260504184549 24 160 3.2 14.5 0.00 0.00 0.00 48 1013.1
20260504184047 25 182 6.4 14.5 0.00 0.00 0.00 49 1013.2
20260504183546 24 335 4.8 20.9 0.00 0.00 0.00 50 1013.3
20260504183046 24 281 4.8 12.9 0.00 0.00 0.00 50 1013.3
20260504182548 24 165 6.4 12.9 0.00 0.00 0.00 49 1013.4
20260504182045 24 192 4.8 17.7 0.00 0.00 0.00 49 1013.4
20260504181548 24 37 4.8 17.7 0.00 0.00 0.00 53 1013.5
20260504181044 23 187 3.2 14.5 0.00 0.00 0.00 53 1013.4
20260504180543 24 280 4.8 16.1 0.00 0.00 0.00 52 1013.4
20260504180043 24 237 8.0 16.1 0.00 0.00 0.00 53 1013.6
20260504175543 24 184 3.2 19.3 0.00 0.00 0.00 53 1013.5
20260504175040 23 144 4.8 19.3 0.00 0.00 0.00 49 1013.5
20260504174539 23 169 4.8 12.9 0.00 0.00 0.00 51 1013.6
20260504174039 23 351 3.2 14.5 0.00 0.00 0.00 50 1013.6
20260504173537 23 153 4.8 22.5 0.00 0.00 0.00 51 1013.7
20260504173036 23 140 3.2 16.1 0.00 0.00 0.00 53 1013.7
20260504172538 23 194 8.0 19.3 0.00 0.00 0.00 51 1013.9
20260504172037 23 229 6.4 14.5 0.00 0.00 0.00 52 1013.9
20260504171545 23 101 4.8 14.5 0.00 0.00 0.00 52 1014.0
20260504171034 23 153 4.8 12.9 0.00 0.00 0.00 52 1014.0
20260504170534 23 196 4.8 22.5 0.00 0.00 0.00 54 1014.0
20260504151013 20 154 6.4 20.9 0.00 0.00 0.00 56 1015.3
20260504150507 20 191 6.4 20.9 0.00 0.00 0.00 57 1015.4
20260504141054 17 273 8.0 16.1 0.00 0.00 0.00 57 1015.7
20260504140554 17 265 3.2 19.3 0.00 0.00 0.00 59 1015.9
20260504130538 14 160 1.6 17.7 0.00 0.00 0.00 62 1016.1
20260504110507 11 220 3.2 8.0 0.00 0.00 0.00 66 1015.1
20260504100502 11 225 1.6 6.4 0.00 0.00 0.00 64 1015.3
20260504090112 11 213 1.6 6.4 0.00 0.03 0.00 65 1015.6
20260504081554 10 126 0.0 4.8 0.00 0.03 0.00 68 1015.6
20260504081053 10 138 0.0 4.8 0.00 0.03 0.00 68 1015.7
20260504080552 10 138 1.6 6.4 0.00 0.03 0.00 68 1015.6